Louisville, KY

4:56 PM EST on February 08, 2016 (GMT -0500)
Louisville International-Standiford

Weather History for KSDF - October, 2013

Change the Weather History Date:

Thursday, October 17, 2013

  Actual Average Record
Temperature  
Mean Temperature 55 °F 59 °F  
Max Temperature 63 °F 70 °F 87 °F (1950)
Min Temperature 47 °F 48 °F 32 °F (1948)
Degree Days  
Heating Degree Days 10 7  
Month to date heating degree days 34 88  
Since 1 July heating degree days 40 118  
Cooling Degree Days 0 1  
Month to date cooling degree days 53 32  
Year to date cooling degree days 1628 1599  
Growing Degree Days 6 (Base 50)    
Moisture  
Dew Point 46 °F    
Average Humidity 71    
Maximum Humidity 86    
Minimum Humidity 55    
Precipitation  
Precipitation 0.05 in 0.11 in 2.48 in (1975)
Month to date precipitation 7.63 1.79  
Year to date precipitation 42.14 36.06  
Snow  
Snow 0.00 in 0.00 in 0.00 in ()
Month to date snowfall 0.0 0.0  
Since 1 July snowfall 0.0 0.0  
Since 1 September snowfall 0.0 0.0  
Snow Depth 0.00 in    
Sea Level Pressure  
Sea Level Pressure 29.96 in    
Wind  
Wind Speed 6 mph (WNW)    
Max Wind Speed 15 mph    
Max Gust Speed 21 mph    
Visibility 9 miles    
Events Rain    
T = Trace of Precipitation, MM = Missing Value Source: NWS Daily Summary

Daily Weather History Graph

Daily Weather History Graph

Search for Another Location

Airport or City:

Trip Planner

Search our weather history database for the weather conditions in past years. The results will help you decide how hot, cold, wet, or windy it might be!

Date:

Astronomy

Oct. 17, 2013 Rise Set
Actual Time 7:53 AM EDT 7:02 PM EDT
Civil Twilight 7:27 AM EDT 7:28 PM EDT
Nautical Twilight 6:56 AM EDT 7:59 PM EDT
Astronomical Twilight 6:25 AM EDT 8:29 PM EDT
Moon 6:15 PM EDT (10/17) 6:26 AM EDT (10/17)
Length of Visible Light 12h 01m
Length of Day
11h 08m
Waxing Gibbous, 98% of the Moon is Illuminated
Oct 17
Waxing Gibbous
Oct 18
Full
Oct 26
Last Quarter
Nov 3
New
Nov 10
First Quarter

Hourly Weather History & Observations

Time (EDT) Temp. Dew Point Humidity Pressure Visibility Wind Dir Wind Speed Gust Speed Precip Events Conditions
12:56 AM 53.6 °F 48.2 °F 82% 29.96 in 10.0 mi NW 3.5 mph - N/A   Scattered Clouds
1:56 AM 54.0 °F 48.9 °F 83% 29.96 in 10.0 mi North 12.7 mph 16.1 mph N/A   Mostly Cloudy
2:56 AM 51.1 °F 45.0 °F 80% 29.96 in 10.0 mi North 8.1 mph - N/A   Mostly Cloudy
3:56 AM 50.0 °F 44.1 °F 80% 29.95 in 10.0 mi North 4.6 mph - N/A   Partly Cloudy
4:56 AM 48.9 °F 45.0 °F 86% 29.94 in 10.0 mi North 5.8 mph - N/A   Scattered Clouds
5:56 AM 48.9 °F 45.0 °F 86% 29.94 in 10.0 mi Calm Calm - N/A   Mostly Cloudy
6:56 AM 50.0 °F 46.0 °F 86% 29.96 in 10.0 mi WNW 5.8 mph - N/A   Overcast
7:56 AM 50.0 °F 46.0 °F 86% 29.93 in 10.0 mi NNW 6.9 mph - N/A   Overcast
8:56 AM 51.1 °F 44.1 °F 77% 29.96 in 10.0 mi Calm Calm - 0.00 in   Overcast
9:56 AM 50.0 °F 45.0 °F 83% 29.99 in 10.0 mi WNW 6.9 mph - 0.00 in Rain Light Rain
10:23 AM 50.0 °F 46.4 °F 87% 29.97 in 2.0 mi NNW 5.8 mph - 0.00 in Rain Light Rain
10:31 AM 50.0 °F 46.4 °F 87% 29.98 in 2.0 mi NW 6.9 mph - 0.03 in Rain Heavy Rain
10:38 AM 50.0 °F 46.4 °F 87% 29.98 in 3.0 mi WNW 4.6 mph - 0.04 in Rain Light Rain
10:56 AM 51.1 °F 46.0 °F 83% 29.97 in 8.0 mi Calm Calm - 0.05 in Rain Light Rain
11:56 AM 53.1 °F 48.0 °F 83% 29.96 in 10.0 mi SSE 3.5 mph - 0.00 in   Overcast
12:56 PM 55.0 °F 48.0 °F 77% 29.95 in 10.0 mi West 6.9 mph - N/A   Mostly Cloudy
12:59 PM 55.4 °F 48.2 °F 77% 29.95 in 10.0 mi SW 5.8 mph - N/A   Overcast
1:56 PM 57.9 °F 46.9 °F 67% 29.94 in 10.0 mi West 13.8 mph - N/A   Mostly Cloudy
2:37 PM 59.0 °F 46.4 °F 63% 29.93 in 10.0 mi West 15.0 mph - N/A   Mostly Cloudy
2:56 PM 57.9 °F 45.0 °F 62% 29.94 in 10.0 mi WNW 10.4 mph - N/A   Mostly Cloudy
3:56 PM 61.0 °F 46.0 °F 58% 29.94 in 10.0 mi WNW 11.5 mph - N/A   Scattered Clouds
4:56 PM 60.1 °F 44.1 °F 55% 29.94 in 10.0 mi West 10.4 mph - N/A   Mostly Cloudy
5:56 PM 59.0 °F 44.1 °F 58% 29.95 in 10.0 mi WNW 9.2 mph - N/A   Mostly Cloudy
6:56 PM 55.9 °F 44.1 °F 64% 29.95 in 10.0 mi West 10.4 mph - N/A   Scattered Clouds
7:56 PM 53.1 °F 44.1 °F 71% 29.98 in 10.0 mi West 4.6 mph - N/A   Clear
8:56 PM 53.1 °F 45.0 °F 74% 29.99 in 10.0 mi West 4.6 mph - N/A   Clear
9:56 PM 51.1 °F 45.0 °F 80% 30.01 in 10.0 mi Calm Calm - N/A   Partly Cloudy
10:56 PM 50.0 °F 45.0 °F 83% 30.02 in 10.0 mi Calm Calm - N/A   Partly Cloudy
11:56 PM 48.9 °F 45.0 °F 86% 30.01 in 10.0 mi SSE 3.5 mph - N/A   Partly Cloudy